Friday Harbor, WA

3:53 AM PDT on May 28, 2018 (GMT -0700)
Friday Harbor

Weather History for KFHR - December, 2013

Change the Weather History Date:

Saturday, December 28, 2013

  Actual Average Record
Temperature  
Mean Temperature 38 °F -  
Max Temperature 45 °F 43 °F 55 °F (2011)
Min Temperature 30 °F 34 °F 24 °F (1996)
Degree Days  
Heating Degree Days 28    
Moisture  
Dew Point 34 °F    
Average Humidity 95    
Maximum Humidity 100    
Minimum Humidity 80    
Precipitation  
Precipitation 0.00 in - - ()
Sea Level Pressure  
Sea Level Pressure 30.48 in    
Wind  
Wind Speed 1 mph (WNW)    
Max Wind Speed 6 mph    
Max Gust Speed -    
Visibility 5 miles    
Events Fog    
Averages and records for this station are not official NWS values.
T = Trace of Precipitation, MM = Missing Value Source: NWS Daily Summary

Daily Weather History Graph

Daily Weather History Graph

Search for Another Location

Airport or City:

Astronomy

Dec. 28, 2013 Rise Set
Actual Time 8:03 AM PST 4:24 PM PST
Civil Twilight 7:27 AM PST 5:00 PM PST
Nautical Twilight 6:46 AM PST 5:40 PM PST
Astronomical Twilight 6:08 AM PST 6:19 PM PST
Moon 3:36 AM PST 1:28 PM PST
Length of Visible Light 9h 33m
Length of Day
8h 20m
Waning Crescent, 18% of the Moon is Illuminated
Dec 28
Waning Crescent
Jan 1
New
Jan 7
First Quarter
Jan 15
Full
Jan 23
Last Quarter

Hourly Weather History & Observations

Time (PST) Temp. Windchill Dew Point Humidity Pressure Visibility Wind Dir Wind Speed Gust Speed Precip Events Conditions
12:12 AM 34.0 °F 31.0 °F 32.0 °F 92% 30.37 in 2.0 mi WNW 3.5 mph - N/A   Mostly Cloudy
12:21 AM 34.0 °F - 34.0 °F 100% 30.37 in 0.8 mi Calm Calm - N/A   Mist
12:31 AM 34.0 °F 31.0 °F 34.0 °F 100% 30.38 in 1.5 mi West 3.5 mph - N/A   Mostly Cloudy
12:53 AM 35.1 °F - 34.0 °F 96% 30.38 in 1.2 mi Calm Calm - N/A   Scattered Clouds
1:03 AM 34.0 °F - 33.1 °F 96% 30.39 in 3.0 mi Calm Calm - N/A   Partly Cloudy
1:11 AM 33.1 °F - 32.0 °F 96% 30.40 in 1.8 mi Calm Calm - N/A   Partly Cloudy
1:19 AM 33.1 °F - 33.1 °F 100% 30.40 in 3.0 mi Calm Calm - N/A   Partly Cloudy
1:34 AM 34.0 °F - 33.1 °F 96% 30.41 in 2.0 mi Calm Calm - N/A   Partly Cloudy
1:53 AM 32.0 °F - 30.9 °F 96% 30.42 in 1.2 mi Calm Calm - N/A   Scattered Clouds
1:57 AM 33.1 °F - 32.0 °F 96% 30.42 in 0.8 mi Calm Calm - N/A   Mist
2:11 AM 34.0 °F - 33.1 °F 96% 30.42 in 2.0 mi Calm Calm - N/A   Scattered Clouds
2:18 AM 32.0 °F - 32.0 °F 100% 30.42 in 6.0 mi Calm Calm - N/A   Scattered Clouds
2:40 AM 33.1 °F - 33.1 °F 100% 30.43 in 1.5 mi Calm Calm - N/A   Mostly Cloudy
2:48 AM 35.6 °F 32.8 °F 33.8 °F 93% 30.43 in 0.2 mi West 3.5 mph - N/A Fog Fog
2:53 AM 36.0 °F - 35.1 °F 97% 30.44 in 0.2 mi Calm Calm - N/A Fog Fog
3:37 AM 34.0 °F 29.8 °F 33.1 °F 96% 30.45 in 2.5 mi West 4.6 mph - N/A   Mostly Cloudy
3:44 AM 34.0 °F 29.8 °F 33.1 °F 96% 30.44 in 10.0 mi West 4.6 mph - N/A   Scattered Clouds
3:53 AM 33.1 °F 30.0 °F 33.1 °F 100% 30.45 in 10.0 mi West 3.5 mph - N/A   Partly Cloudy
4:07 AM 33.1 °F - 32.0 °F 96% 30.46 in 1.8 mi Calm Calm - N/A   Partly Cloudy
4:14 AM 35.1 °F 31.0 °F 33.1 °F 92% 30.46 in 3.0 mi WNW 4.6 mph - N/A   Partly Cloudy
4:53 AM 32.0 °F 28.7 °F 32.0 °F 100% 30.47 in 3.0 mi West 3.5 mph - N/A   Partly Cloudy
5:00 AM 32.0 °F - 30.9 °F 96% 30.46 in 2.5 mi Calm Calm - N/A   Partly Cloudy
5:04 AM 33.1 °F - 30.9 °F 92% 30.46 in 1.0 mi Calm Calm - N/A   Mist
5:13 AM 33.1 °F - 32.0 °F 96% 30.46 in 2.0 mi Calm Calm - N/A   Scattered Clouds
5:21 AM 33.1 °F - 32.0 °F 96% 30.46 in 4.0 mi Calm Calm - N/A   Partly Cloudy
5:27 AM 32.0 °F 28.7 °F 30.9 °F 96% 30.47 in 1.8 mi SSW 3.5 mph - N/A   Scattered Clouds
5:37 AM 33.1 °F 30.0 °F 32.0 °F 96% 30.47 in 3.0 mi West 3.5 mph - N/A   Partly Cloudy
5:53 AM 33.1 °F - 32.0 °F 96% 30.48 in 2.5 mi Calm Calm - N/A   Scattered Clouds
6:01 AM 33.1 °F - 32.0 °F 96% 30.48 in 1.8 mi Calm Calm - N/A   Scattered Clouds
6:05 AM 34.0 °F 29.8 °F 33.1 °F 96% 30.48 in 3.0 mi West 4.6 mph - N/A   Scattered Clouds
6:17 AM 33.1 °F - 32.0 °F 96% 30.48 in 1.8 mi Calm Calm - N/A   Scattered Clouds
6:36 AM 30.9 °F - 30.0 °F 96% 30.48 in 0.8 mi Calm Calm - N/A   Mist
6:49 AM 33.8 °F - 32.0 °F 93% 30.48 in 1.2 mi Calm Calm - N/A   Partly Cloudy
6:53 AM 32.0 °F - 32.0 °F 100% 30.48 in 2.0 mi Calm Calm - N/A   Partly Cloudy
7:06 AM 32.0 °F - 30.9 °F 96% 30.48 in 3.0 mi Calm Calm - N/A   Clear
7:10 AM 33.1 °F - 32.0 °F 96% 30.48 in 1.8 mi Calm Calm - N/A   Partly Cloudy
7:13 AM 32.0 °F - 32.0 °F 100% 30.48 in 0.8 mi Calm Calm - N/A   Mist
7:31 AM 33.1 °F - 32.0 °F 96% 30.48 in 1.2 mi Calm Calm - N/A   Partly Cloudy
7:44 AM 30.9 °F 27.5 °F 30.0 °F 96% 30.49 in 3.0 mi West 3.5 mph - N/A   Partly Cloudy
7:53 AM 35.1 °F 30.1 °F 33.1 °F 92% 30.49 in 9.0 mi West 5.8 mph - N/A   Clear
8:26 AM 33.1 °F - 33.1 °F 100% 30.49 in 1.2 mi Calm Calm - N/A   Clear
8:35 AM 33.1 °F - 32.0 °F 96% 30.50 in 0.5 mi Calm Calm - N/A Fog Fog
8:47 AM 33.8 °F 30.8 °F 32.0 °F 93% 30.50 in 2.0 mi West 3.5 mph - N/A   Clear
8:53 AM 35.1 °F - 34.0 °F 96% 30.51 in 5.0 mi Calm Calm - N/A   Clear
9:27 AM 37.0 °F - 36.0 °F 96% 30.52 in 1.8 mi Calm Calm - N/A   Clear
9:40 AM 36.0 °F - 35.1 °F 97% 30.53 in 3.0 mi Calm Calm - N/A   Clear
9:53 AM 39.9 °F - 37.9 °F 93% 30.54 in 10.0 mi Calm Calm - N/A   Mostly Cloudy
10:48 AM 41.0 °F - 39.2 °F 93% 30.54 in 10.0 mi Calm Calm - N/A   Mostly Cloudy
10:53 AM 42.1 °F - 39.9 °F 92% 30.55 in 10.0 mi Calm Calm - N/A   Mostly Cloudy
11:01 AM 43.0 °F - 42.1 °F 97% 30.53 in 10.0 mi Calm Calm - N/A   Scattered Clouds
11:53 AM 45.0 °F 43.5 °F 39.9 °F 82% 30.53 in 10.0 mi North 3.5 mph - N/A   Mostly Cloudy
12:53 PM 44.1 °F 42.5 °F 39.9 °F 85% 30.53 in 10.0 mi North 3.5 mph - N/A   Clear
1:53 PM 44.1 °F 42.5 °F 39.0 °F 82% 30.52 in 10.0 mi North 3.5 mph - N/A   Clear
2:53 PM 45.0 °F 42.6 °F 39.0 °F 80% 30.52 in 10.0 mi North 4.6 mph - N/A   Partly Cloudy
3:31 PM 44.1 °F - 39.0 °F 82% 30.52 in 10.0 mi Calm Calm - N/A   Mostly Cloudy
3:53 PM 42.1 °F - 37.9 °F 85% 30.53 in 10.0 mi Calm Calm - N/A   Scattered Clouds
4:37 PM 39.9 °F - 39.0 °F 97% 30.52 in 10.0 mi Calm Calm - N/A   Mostly Cloudy
4:53 PM 39.9 °F - 37.9 °F 93% 30.53 in 10.0 mi Calm Calm - N/A   Overcast
5:42 PM 37.9 °F - 37.0 °F 97% 30.52 in 10.0 mi Calm Calm - N/A   Scattered Clouds
5:53 PM 37.9 °F - 37.0 °F 97% 30.53 in 10.0 mi Calm Calm - N/A   Clear
6:53 PM 35.1 °F - 35.1 °F 100% 30.53 in 9.0 mi Calm Calm - N/A   Clear
7:53 PM 37.9 °F 35.5 °F 37.0 °F 97% 30.54 in 10.0 mi WNW 3.5 mph - N/A   Mostly Cloudy
8:53 PM 37.9 °F - 36.0 °F 93% 30.53 in 10.0 mi Calm Calm - N/A   Partly Cloudy
9:53 PM 36.0 °F - 35.1 °F 97% 30.53 in 10.0 mi Calm Calm - N/A   Mostly Cloudy
10:23 PM 35.1 °F - 33.1 °F 92% 30.52 in 1.8 mi Calm Calm - N/A   Clear
10:35 PM 34.0 °F - 33.1 °F 96% 30.51 in 4.0 mi Calm Calm - N/A   Mostly Cloudy
10:53 PM 35.1 °F - 34.0 °F 96% 30.51 in 10.0 mi Calm Calm - N/A   Scattered Clouds
11:13 PM 34.0 °F - 33.1 °F 96% 30.51 in 1.5 mi Calm Calm - N/A   Clear
11:25 PM 34.0 °F - 33.1 °F 96% 30.50 in 3.0 mi Calm Calm - N/A   Clear
11:53 PM 33.1 °F - 33.1 °F 100% 30.49 in 10.0 mi Calm Calm - N/A   Clear